Northeast Philadelphia, PA

2:05 AM EDT on March 26, 2017 (GMT -0400)
Northeast Philadelphia

Weather History for KPNE - December, 2011

Change the Weather History Date:

Saturday, December 10, 2011

  Actual Average Record
Temperature  
Mean Temperature 37 °F -  
Max Temperature 44 °F 45 °F 66 °F (2008)
Min Temperature 28 °F 31 °F 17 °F (2010)
Degree Days  
Heating Degree Days 28    
Moisture  
Dew Point 24 °F    
Average Humidity 60    
Maximum Humidity 86    
Minimum Humidity 40    
Precipitation  
Precipitation 0.00 in - - ()
Sea Level Pressure  
Sea Level Pressure 30.35 in    
Wind  
Wind Speed 5 mph (NNW)    
Max Wind Speed 17 mph    
Max Gust Speed 23 mph    
Visibility 10 miles    
Events      
Averages and records for this station are not official NWS values.
T = Trace of Precipitation, MM = Missing Value Source: NWS Daily Summary

Daily Weather History Graph

Daily Weather History Graph

Search for Another Location

Airport or City:

Trip Planner

Search our weather history database for the weather conditions in past years. The results will help you decide how hot, cold, wet, or windy it might be!

Date:

Astronomy

Dec. 10, 2011 Rise Set
Actual Time 7:10 AM EST 4:34 PM EST
Civil Twilight 6:40 AM EST 5:04 PM EST
Nautical Twilight 6:06 AM EST 5:38 PM EST
Astronomical Twilight 5:33 AM EST 6:11 PM EST
Moon 4:46 PM EST (12/10) 7:08 AM EST (12/10)
Length of Visible Light 10h 24m
Length of Day
9h 23m
Full, 100% of the Moon is Illuminated
Dec 10
Full
Dec 17
Last Quarter
Dec 24
New
Jan 1
First Quarter
Jan 9
Full

Hourly Weather History & Observations

Time (EST) Temp. Windchill Dew Point Humidity Pressure Visibility Wind Dir Wind Speed Gust Speed Precip Events Conditions
12:54 AM 39.0 °F - 35.1 °F 86% 30.23 in 10.0 mi Calm Calm - N/A   Clear
1:54 AM 37.9 °F - 34.0 °F 86% 30.23 in 10.0 mi Calm Calm - N/A   Clear
2:54 AM 37.9 °F - 33.1 °F 83% 30.23 in 10.0 mi Calm Calm - N/A   Clear
3:54 AM 37.9 °F - 32.0 °F 79% 30.22 in 10.0 mi Calm Calm - N/A   Clear
4:54 AM 37.9 °F 35.5 °F 28.9 °F 70% 30.23 in 10.0 mi NW 3.5 mph - N/A   Clear
5:54 AM 39.0 °F 34.0 °F 28.0 °F 65% 30.25 in 10.0 mi NW 6.9 mph - N/A   Clear
6:54 AM 37.9 °F 32.7 °F 28.0 °F 68% 30.28 in 10.0 mi Variable 6.9 mph - N/A   Clear
7:54 AM 37.9 °F 32.1 °F 28.0 °F 68% 30.30 in 10.0 mi NW 8.1 mph - N/A   Clear
8:54 AM 39.9 °F 34.5 °F 28.9 °F 65% 30.32 in 10.0 mi NNW 8.1 mph - N/A   Clear
9:54 AM 42.1 °F 35.7 °F 28.9 °F 60% 30.34 in 10.0 mi NW 11.5 mph - N/A   Clear
10:54 AM 42.1 °F 35.7 °F 28.0 °F 58% 30.35 in 10.0 mi NW 11.5 mph 23.0 mph N/A   Scattered Clouds
11:54 AM 42.1 °F 35.2 °F 27.0 °F 55% 30.34 in 10.0 mi NNW 12.7 mph - N/A   Scattered Clouds
12:54 PM 44.1 °F 39.0 °F 26.1 °F 49% 30.32 in 10.0 mi NNW 9.2 mph - N/A   Mostly Cloudy
1:54 PM 43.0 °F 35.1 °F 21.0 °F 42% 30.32 in 10.0 mi NNW 17.3 mph 23.0 mph N/A   Clear
2:54 PM 42.1 °F 34.9 °F 19.9 °F 41% 30.32 in 10.0 mi NW 13.8 mph 21.9 mph N/A   Clear
3:54 PM 41.0 °F 33.9 °F 18.0 °F 40% 30.35 in 10.0 mi WNW 12.7 mph 18.4 mph N/A   Clear
4:54 PM 37.9 °F 30.9 °F 17.1 °F 43% 30.37 in 10.0 mi NNW 10.4 mph - N/A   Clear
5:54 PM 37.0 °F 32.4 °F 16.0 °F 42% 30.40 in 10.0 mi NNW 5.8 mph - N/A   Clear
6:54 PM 35.1 °F 31.0 °F 17.1 °F 48% 30.43 in 10.0 mi NW 4.6 mph - N/A   Clear
7:54 PM 33.1 °F 27.7 °F 18.0 °F 54% 30.47 in 10.0 mi North 5.8 mph - N/A   Clear
8:54 PM 32.0 °F - 17.1 °F 54% 30.49 in 10.0 mi Calm Calm - N/A   Clear
9:54 PM 30.9 °F 26.2 °F 18.0 °F 59% 30.50 in 10.0 mi North 4.6 mph - N/A   Clear
10:54 PM 30.9 °F 27.5 °F 18.0 °F 59% 30.53 in 10.0 mi NNW 3.5 mph - N/A   Clear
11:54 PM 28.9 °F 23.9 °F 17.1 °F 61% 30.54 in 10.0 mi NNW 4.6 mph - N/A   Clear